Regional Weather Roundup
Issued by NWS

Home | Current Version | Previous Version | Text Only | Print | Product List | Glossary Off
Versions: 1 2 3 4 5 6 7 8 9 10 11 12 13 14 15 16 17 18 19 20 21 22 23 24 25 26 27 28 29 30 31 32 33 34 35 36 37 38 39 40 41 42 43 44 45 46 47 48 49 50

000
ASUS43 KDTX 221301
RWRMI
MICHIGAN HOURLY REGIONAL WEATHER ROUNDUP
NATIONAL WEATHER SERVICE DETROIT/PONTIAC MI
900 AM EDT FRI AUG 22 2014

NOTE: "FAIR" INDICATES FEW OR NO CLOUDS BELOW 12,000 FEET WITH NO
SIGNIFICANT WEATHER AND/OR OBSTRUCTION TO VISIBILITY.

MIZ047>049-052>055-059>063-066>070-074>076-081>083-221400-
SOUTHEAST LOWER MICHIGAN

CITY           SKY/WX    TMP DP  RH WIND       PRES   REMARKS
ADRIAN         FOG       71  70  96 CALM      30.00R VSB 3/4
ALMA           CLOUDY    69  66  90 E6        29.99F
ANN ARBOR      FOG       71  68  90 E3        30.00R VSB 1/4
BAD AXE        CLOUDY    63  63 100 CALM      30.03R FOG
CARO           SUNNY     67  63  86 SE6       30.00S
DETROIT CITY   CLOUDY    72  67  84 NE3       30.00S
DETROIT        CLOUDY    71  67  87 NE5       30.00S FOG
FLINT          PTSUNNY   72  64  76 SE6       30.01R
GROSSE ILE     CLOUDY    72  68  88 NE6       29.99R FOG
HILLSDALE      CLOUDY    70  70 100 CALM      30.00R FOG
HOWELL         CLOUDY    70  68  94 E5        30.00S FOG

CITY           SKY/WX    TMP DP  RH WIND       PRES   REMARKS
JACKSON        CLOUDY    72  69  90 SE6       29.99R
LAMBERTVILLE   MOSUNNY   73  70  88 CALM      29.99R HAZE
LANSING        FOG       71  69  93 SE7       29.99R VSB 3/4
LAPEER         PTSUNNY   67  63  85 SE3       30.02S
MASON          FOG       70  69  97 SE3       29.99R VSB 1/4
MONROE         CLOUDY    73  72  94 CALM      29.98R FOG
MT. CLEMENS    MOSUNNY   71  64  80 CALM      30.00R
PONTIAC        CLOUDY    70  63  78 E6        30.00S
PORT HOPE        N/A     64  62  93 SE6       30.02R
PORT HURON     CLOUDY    68  64  88 N3        30.01R
TRI CITIES     CLOUDY    69  64  84 E7        30.01S
TROY           CLOUDY    70  65  83 NE5       30.02S
SAGINAW HB     CLOUDY    68  68 100 E5        30.00S
$$
MIZ043>046-050>051-056>058-064>065-071>073-077>080-221400-
SOUTHWEST LOWER MICHIGAN

CITY           SKY/WX    TMP DP  RH WIND       PRES   REMARKS
BATTLE CREEK   CLOUDY    71  69  93 S5        29.98S FOG
BENTON HARBOR  CLOUDY    72  70  93 SE5       29.95S
BIG RAPIDS     CLOUDY    68  66  96 S7        29.99S
COLDWATER      CLOUDY    71  70  96 SE3       29.99R FOG
FREMONT        CLOUDY    68  67  98 E6        29.97S FOG
HOLLAND        FOG       72  70  93 SE6       29.97R VSB 1/4
GRAND RAPIDS   FOG       71  71 100 SE6       29.97R VSB 1/2
IONIA          FOG       68  68  99 SE5       29.98R VSB<1/4
KALAMAZOO      FOG       71  69  93 CALM      29.98R VSB 3/4
LUDINGTON      CLOUDY    69  69  98 SE5       29.97R
MARSHALL       CLOUDY    69  69  99 SE5       29.98R FOG
MOUNT PLEASANT CLOUDY    66  65  95 E3        30.00S
MUSKEGON       PTSUNNY   73  70  90 SE8       29.96R FOG
SOUTH HAVEN    CLOUDY    71  71 100 CALM      29.96R FOG
$$
MIZ016>042-221400-
NORTHERN LOWER MICHIGAN

CITY           SKY/WX    TMP DP  RH WIND       PRES   REMARKS
ALPENA         FOG       63  63 100 CALM      30.02R VSB<1/4
BEAVER ISLAND  CLOUDY    67  66  96 E5        30.00R
BELLAIRE       CLOUDY    69  64  85 CALM      29.99S
CADILLAC       CLOUDY    67  64  87 SE5       30.00S
CHARLEVOIX     CLOUDY    69  67  94 E5        30.02R
FRANKFORT      CLOUDY    71  66  82 CALM      29.96S
GAYLORD        CLOUDY    65  62  90 SE6       30.02R
GRAYLING       CLOUDY    67  66  96 E3        30.03S
HARBOR SPRINGS CLOUDY    67  64  91 E7        30.01R
HOUGHTON LAKE  CLOUDY    64  64 100 E5        30.03R
MANISTEE       CLOUDY    66  64  94 E5        29.97S
OSCODA         CLOUDY    63  62  99 CALM      30.02R
PELLSTON       CLOUDY    65  63  93 CALM      30.02R
ROGERS CITY    SUNNY     65  65 100 CALM      30.03R
TRAVERSE CITY  CLOUDY    70  63  78 E3        29.98R
$$
MIZ007>008-015-221400-
EASTERN UPPER MICHIGAN

CITY           SKY/WX    TMP DP  RH WIND       PRES   REMARKS
KINROSS        CLOUDY    61  59  94 W5        30.03R VSB<1/4
MACKINAC ISLAN CLOUDY    62  62 100 E6        30.01R FOG
NEWBERRY       CLOUDY    60  60 100 CALM      30.00F
S. S. MARIE    FOG       62  61  96 NE3       30.03R VSB<1/4
$$
MIZ004>006-011>014-085-221400-
CENTRAL UPPER MICHIGAN

CITY           SKY/WX    TMP DP  RH WIND       PRES   REMARKS
MANISTIQUE     CLOUDY    64  63  94 CALM      29.99S
ESCANABA       CLOUDY    66  61  82 E7        29.98S
MENOMINEE      CLOUDY    66  64  94 E3        29.95S
SAWYER-GWINN   CLOUDY    64  61  88 E5        30.00S
$$
MIZ001>003-009>011-084-221400-
WESTERN UPPER MICHIGAN

CITY           SKY/WX    TMP DP  RH WIND       PRES   REMARKS
IRON MOUNTAIN  CLOUDY    65  61  87 NE3       29.97R
HOUGHTON       CLOUDY    63  59  87 E7        29.98S
COPPER HARBOR    N/A     58  54  86 CALM      29.99R
IRONWOOD       CLOUDY    66  66 100 E6        29.92S
$$

ABBREVIATIONS USED IN REMARKS
   TC - TEMPERATURE IN CELSIUS
  WCI - WIND CHILL INDEX
   HX - HEAT INDEX
  VSB - VISIBILITY



USA.gov is the U.S. government's official web portal to all federal, state and local government web resources and services.